Location: Wien
(48.2082°N, 16.3738°E)
Time: 12:38:03
(UTC+02:00)

Tiros 1 despin weight - Pass Details

Date: 15 September 2024
Orbit: 573 x 615 km, 48.2° (Epoch: 06 October)

Event Time Altitude Azimuth Distance (km) Brightness Sun altitude
Rises 07:27:11 0° 275° (W) 2,888 ? 8.4°
Reaches altitude 10° 07:29:29 10° 276° (W) 1,984 ? 8.7°
Maximum altitude 07:34:04 87° 187° (S) 624 ? 9.5°
Drops below altitude 10° 07:38:38 10° 99° (E) 1,975 ? 10.2°
Sets 07:40:56 0° 99° (E) 2,875 ? 10.6°
